Flag for Pakistan Weather past 2 weeks in Karachi, Sindh, Pakistan

86 °F

Scattered clouds.

Feels Like: 83 °F
Forecast: 66 / 82 °F
Wind: 9 mph from Northeast

Location: Karachi Airport

Current Time: Nov 25, 2015 at 2:05:29 PM

Latest Report: Nov 25, 2015 at 1:25 PM

Visibility: 4 mi

Pressure: 29.98 "Hg

Humidity: 14%

Dew point: 32 °F

Location of KarachiLocation

Historic Weather in Karachi — Graph


Karachi temperature yesterday

Maximum temperature yesterday: 88 °F (at 12:55 PM)
Minimum temperature yesterday: 68 °F (at 12:25 AM)
Average temperature yesterday: 77 °F

Past Weeks' High & Low Weather Summary

High91 °F (Nov 10, 2:25 PM)83% (Nov 13, 6:30 AM)30.09 "Hg (Nov 13, 6:30 AM)
Low63 °F (Nov 18, 6:25 AM)12% (Nov 18, 2:30 PM)29.86 "Hg (Nov 14, 2:25 PM)
Average78 °F36%29.96 "Hg
* Reported Nov 10 12:25 PM — Nov 25 12:25 PM, Karachi, Weather by CustomWeather, © 2015

Note: Actual official high and low records may vary slightly from our data, if they occured in-between our weather recording intervals... More about our weather records


Karachi weather history for previous 24 hours

Time TempWeatherWind HumidityBarometerVisibility
12:25 PM
Wed, Nov 25
84 °FScattered clouds.12 mph16%30.01 "Hg4 mi
10:55 AM82 °FScattered clouds.12 mph19%30.04 "Hg4 mi
8:55 AM73 °FHaze.3 mph27%30.04 "Hg3 mi
8:25 AM73 °FHaze.5 mph29%30.04 "Hg3 mi
8:00 AM72 °FPassing clouds.8 mph31%30.04 "Hg4 mi
7:30 AM70 °FClear.9 mph33%30.01 "Hg4 mi
7:00 AM70 °FClear.12 mph33%30.01 "Hg4 mi
6:30 AM70 °FClear.9 mph31%29.98 "Hg4 mi
6:00 AM72 °FClear.8 mph27%29.98 "Hg4 mi
4:55 AM72 °FClear.10 mph27%29.98 "Hg4 mi
4:25 AM72 °FClear.9 mph27%29.98 "Hg4 mi
3:25 AM73 °FClear.12 mph25%29.98 "Hg4 mi
2:55 AM73 °FClear.10 mph27%30.01 "Hg4 mi
2:25 AM73 °FClear.8 mph27%30.01 "Hg4 mi
1:55 AM73 °FClear.9 mph29%30.01 "Hg4 mi
1:25 AM73 °FClear.9 mph29%30.01 "Hg4 mi
12:55 AM73 °FClear.6 mph29%30.01 "Hg4 mi
12:30 AM72 °FClear.6 mph33%30.01 "Hg4 mi
11:55 PM
Tue, Nov 24
73 °FClear.12 mph33%30.01 "Hg4 mi
11:30 PM75 °FClear.12 mph31%30.04 "Hg4 mi
11:00 PM75 °FClear.14 mph31%30.04 "Hg4 mi
10:30 PM77 °FClear.14 mph32%30.04 "Hg4 mi
10:00 PM77 °FClear.16 mph32%30.04 "Hg4 mi
9:30 PM77 °FClear.15 mph32%30.01 "Hg4 mi
8:55 PM77 °FClear.13 mph30%30.01 "Hg4 mi
8:25 PM77 °FClear.12 mph30%30.01 "Hg4 mi
7:55 PM79 °FClear.14 mph28%30.01 "Hg4 mi
7:25 PM81 °FClear.13 mph24%29.98 "Hg4 mi
6:55 PM81 °FPassing clouds.15 mph23%29.98 "Hg4 mi
6:25 PM81 °FPassing clouds.14 mph21%29.98 "Hg4 mi
5:55 PM82 °FHaze.15 mph19%29.95 "Hg3 mi
5:25 PM84 °FHaze.16 mph16%29.95 "Hg3 mi
4:55 PM84 °FClear.17 mph16%29.95 "Hg4 mi
4:25 PM86 °FClear.14 mph15%29.95 "Hg4 mi
3:55 PM86 °FPassing clouds.17 mph15%29.95 "Hg4 mi
3:25 PM88 °FPassing clouds.16 mph15%29.95 "Hg4 mi
2:55 PM88 °FPassing clouds.17 mph16%29.95 "Hg4 mi
2:25 PM88 °FHaze.18 mph16%29.95 "Hg3 mi
Weather by CustomWeather, © 2015

See weather overviewHow to use our weather pages